Terug naar catalogus

STARLINK-30380

ActiefCommunicatieVLEO
NORAD 57780·PAYLOAD·🇺🇸 United States

Gelanceerd Sep 4, 2023 vanaf Cape Canaveral Space Force Station

Loading…

Volgende Passages (komende 24 uur)

TLE

VersSource: CelesTrak SupGP

Epoch: Sep 15, 2026, 03:05 UTC

1 57780C 23134K   26258.12895833  .00010249  00000+0  37122-3 0  2583
2 57780  42.9999 204.5567 0001104 267.3494 317.6551 15.27572027    18

Volg STARLINK-30380 in realtime met AllMySat

Download on the App Store